Chester, CT

11:23 AM EST on December 13, 2019 (GMT -0500)
Chester

Weather History for KSNC - August, 2019

Change the Weather History Date:

Friday, August 2, 2019

  Actual Average (WUND) Record (WUND)
Temperature  
Mean Temperature 74 °F -  
Max Temperature 86 °F - - (-1)
Min Temperature 62 °F - - (-1)
Cooling Degree Days 9    
Growing Degree Days 24 (Base 50)    
Moisture  
Dew Point 59 °F    
Average Humidity 61    
Maximum Humidity 94    
Minimum Humidity 37    
Precipitation  
Precipitation 0.00 in - - ()
Sea Level Pressure  
Sea Level Pressure 30.14 in    
Wind  
Wind Speed 3 mph (SW)    
Max Wind Speed 10 mph    
Max Gust Speed -    
Visibility 10 miles    
Events      
Averages and records for this station are not official NWS values.
T = Trace of Precipitation, MM = Missing Value Source: NWS Daily Summary

Daily Weather History Graph

Daily Weather History Graph

Search for Another Location

Airport or City:

Astronomy

Aug. 02, 2019 Rise Set
Actual Time 5:45 AM EDT 8:06 PM EDT
Civil Twilight 5:14 AM EDT 8:37 PM EDT
Nautical Twilight 4:36 AM EDT 9:15 PM EDT
Astronomical Twilight 3:53 AM EDT 9:57 PM EDT
Moon 7:21 AM EDT (8/2) 9:31 PM EDT (8/2)
Length of Visible Light 15h 22m
Length of Day
14h 20m
Waxing Crescent, 4% of the Moon is Illuminated
Aug 2
Waxing Crescent
Aug 7
First Quarter
Aug 15
Full
Aug 23
Last Quarter
Aug 30
New

Hourly Weather History & Observations

Time (EDT) Temp. Heat Index Dew Point Humidity Pressure Visibility Wind Dir Wind Speed Gust Speed Precip Events Conditions
12:15 AM 68.0 °F - 59.0 °F 73% 30.12 in 10.0 mi Calm Calm - N/A   Clear
12:35 AM 66.2 °F - 59.0 °F 78% 30.12 in 10.0 mi Calm Calm - N/A   Clear
12:55 AM 68.0 °F - 57.2 °F 68% 30.12 in 10.0 mi Calm Calm - N/A   Clear
1:35 AM 66.2 °F - 57.2 °F 73% 30.12 in 10.0 mi Calm Calm - N/A   Clear
1:55 AM 64.4 °F - 57.2 °F 77% 30.12 in 10.0 mi NW 3.5 mph - N/A   Clear
2:15 AM 66.2 °F - 57.2 °F 73% 30.13 in 10.0 mi NW 3.5 mph - N/A   Scattered Clouds
2:35 AM 66.2 °F - 55.4 °F 68% 30.13 in 10.0 mi NNW 5.8 mph - N/A   Scattered Clouds
2:55 AM 66.2 °F - 55.4 °F 68% 30.13 in 10.0 mi NW 4.6 mph - N/A   Scattered Clouds
3:15 AM 68.0 °F - 53.6 °F 60% 30.13 in 10.0 mi NNW 5.8 mph - N/A   Scattered Clouds
3:35 AM 68.0 °F - 53.6 °F 60% 30.13 in 10.0 mi NNW 4.6 mph - N/A   Scattered Clouds
3:55 AM 66.2 °F - 53.6 °F 64% 30.13 in 10.0 mi NNW 3.5 mph - N/A   Scattered Clouds
4:15 AM 64.4 °F - 53.6 °F 68% 30.13 in 10.0 mi Calm Calm - N/A   Partly Cloudy
4:35 AM 66.2 °F - 53.6 °F 64% 30.13 in 10.0 mi Calm Calm - N/A   Scattered Clouds
4:55 AM 64.4 °F - 53.6 °F 68% 30.14 in 10.0 mi NNW 4.6 mph - N/A   Scattered Clouds
5:15 AM 64.4 °F - 53.6 °F 68% 30.14 in 10.0 mi NNW 3.5 mph - N/A   Partly Cloudy
5:55 AM 62.6 °F - 55.4 °F 77% 30.14 in 10.0 mi NW 4.6 mph - N/A   Clear
6:15 AM 64.4 °F - 55.4 °F 73% 30.15 in 10.0 mi NW 3.5 mph - N/A   Clear
6:35 AM 64.4 °F - 55.4 °F 73% 30.15 in 10.0 mi NW 3.5 mph - N/A   Partly Cloudy
6:55 AM 64.4 °F - 57.2 °F 77% 30.15 in 10.0 mi NNW 3.5 mph - N/A   Clear
7:15 AM 66.2 °F - 55.4 °F 68% 30.15 in 10.0 mi Calm Calm - N/A   Clear
7:35 AM 66.2 °F - 55.4 °F 68% 30.16 in 10.0 mi NNW 3.5 mph - N/A   Clear
7:55 AM 69.8 °F - 57.2 °F 64% 30.16 in 10.0 mi Calm Calm - N/A   Clear
8:15 AM 73.4 °F - 55.4 °F 53% 30.16 in 10.0 mi North 3.5 mph - N/A   Clear
8:35 AM 73.4 °F - 57.2 °F 57% 30.16 in 10.0 mi Calm Calm - N/A   Clear
8:55 AM 75.2 °F - 57.2 °F 53% 30.16 in 10.0 mi NE 3.5 mph - N/A   Clear
9:15 AM 77.0 °F - 57.2 °F 50% 30.16 in 10.0 mi Variable 3.5 mph - N/A   Clear
9:35 AM 77.0 °F - 57.2 °F 50% 30.16 in 10.0 mi East 5.8 mph - N/A   Clear
9:55 AM 77.0 °F - 55.4 °F 47% 30.16 in 10.0 mi NE 5.8 mph - N/A   Clear
10:15 AM 78.8 °F - 55.4 °F 44% 30.17 in 10.0 mi ESE 4.6 mph - N/A   Clear
10:35 AM 78.8 °F - 57.2 °F 47% 30.17 in 10.0 mi Calm Calm - N/A   Clear
10:55 AM 80.6 °F 80.5 °F 55.4 °F 42% 30.17 in 10.0 mi Calm Calm - N/A   Clear
11:35 AM 84.2 °F 83.5 °F 57.2 °F 40% 30.16 in 10.0 mi ESE 3.5 mph - N/A   Clear
11:55 AM 82.4 °F 81.7 °F 55.4 °F 39% 30.16 in 10.0 mi Calm Calm - N/A   Clear
12:15 PM 84.2 °F 83.5 °F 57.2 °F 40% 30.16 in 10.0 mi Calm Calm - N/A   Clear
12:35 PM 84.2 °F 83.0 °F 55.4 °F 37% 30.16 in 10.0 mi South 5.8 mph - N/A   Unknown
12:55 PM 84.2 °F 83.0 °F 55.4 °F 37% 30.15 in 10.0 mi Variable 4.6 mph - N/A   Clear
1:15 PM 84.2 °F 83.5 °F 57.2 °F 40% 30.15 in 10.0 mi WSW 5.8 mph - N/A   Partly Cloudy
1:35 PM 86.0 °F 86.1 °F 60.8 °F 43% 30.14 in 10.0 mi SSW 8.1 mph - N/A   Clear
1:55 PM 82.4 °F 82.5 °F 59.0 °F 45% 30.14 in 10.0 mi South 8.1 mph - N/A   Clear
2:15 PM 82.4 °F 82.5 °F 59.0 °F 45% 30.13 in 10.0 mi South 9.2 mph - N/A   Clear
2:35 PM 84.2 °F 83.5 °F 57.2 °F 40% 30.13 in 10.0 mi South 10.4 mph - N/A   Clear
2:55 PM 82.4 °F 82.0 °F 57.2 °F 42% 30.13 in 10.0 mi South 9.2 mph - N/A   Clear
3:15 PM 82.4 °F 81.7 °F 55.4 °F 39% 30.12 in 10.0 mi SSE 9.2 mph - N/A   Clear
3:55 PM 84.2 °F 83.0 °F 55.4 °F 37% 30.12 in 10.0 mi South 8.1 mph - N/A   Clear
4:15 PM 82.4 °F 81.7 °F 55.4 °F 39% 30.12 in 10.0 mi SSW 6.9 mph - N/A   Clear
4:35 PM 82.4 °F 81.7 °F 55.4 °F 39% 30.12 in 10.0 mi South 8.1 mph - N/A   Clear
4:55 PM 82.4 °F 82.0 °F 57.2 °F 42% 30.12 in 10.0 mi South 8.1 mph - N/A   Clear
5:15 PM 80.6 °F 80.8 °F 57.2 °F 45% 30.12 in 10.0 mi South 8.1 mph - N/A   Clear
5:35 PM 80.6 °F 81.1 °F 59.0 °F 48% 30.12 in 10.0 mi South 5.8 mph - N/A   Partly Cloudy
5:55 PM 80.6 °F 81.5 °F 60.8 °F 51% 30.12 in 10.0 mi South 5.8 mph - N/A   Clear
6:15 PM 78.8 °F - 60.8 °F 54% 30.12 in 10.0 mi South 6.9 mph - N/A   Clear
6:35 PM 77.0 °F - 60.8 °F 57% 30.12 in 10.0 mi Calm Calm - N/A   Clear
6:55 PM 77.0 °F - 60.8 °F 57% 30.12 in 10.0 mi Calm Calm - N/A   Clear
7:15 PM 75.2 °F - 60.8 °F 61% 30.12 in 10.0 mi Calm Calm - N/A   Scattered Clouds
7:35 PM 75.2 °F - 59.0 °F 57% 30.12 in 10.0 mi South 4.6 mph - N/A   Mostly Cloudy
7:55 PM 73.4 °F - 60.8 °F 65% 30.12 in 10.0 mi South 4.6 mph - N/A   Scattered Clouds
8:15 PM 73.4 °F - 60.8 °F 65% 30.12 in 10.0 mi Calm Calm - N/A   Scattered Clouds
8:35 PM 73.4 °F - 62.6 °F 69% 30.12 in 10.0 mi Calm Calm - N/A   Partly Cloudy
8:55 PM 71.6 °F - 64.4 °F 78% 30.12 in 10.0 mi Calm Calm - N/A   Partly Cloudy
9:15 PM 71.6 °F - 66.2 °F 83% 30.13 in 10.0 mi Calm Calm - N/A   Scattered Clouds
9:35 PM 71.6 °F - 68.0 °F 88% 30.13 in 10.0 mi South 3.5 mph - N/A   Partly Cloudy
9:55 PM 71.6 °F - 69.8 °F 94% 30.13 in 10.0 mi Calm Calm - N/A   Partly Cloudy
10:15 PM 71.6 °F - 69.8 °F 94% 30.13 in 10.0 mi South 3.5 mph - N/A   Partly Cloudy
10:35 PM 71.6 °F - 69.8 °F 94% 30.13 in 10.0 mi Calm Calm - N/A   Partly Cloudy
10:55 PM 71.6 °F - 69.8 °F 94% 30.13 in 10.0 mi South 3.5 mph - N/A   Partly Cloudy
11:15 PM 71.6 °F - 69.8 °F 94% 30.12 in 10.0 mi Calm Calm - N/A   Scattered Clouds
11:35 PM 71.6 °F - 69.8 °F 94% 30.12 in 10.0 mi Calm Calm - N/A   Partly Cloudy
11:55 PM 71.6 °F - 69.8 °F 94% 30.12 in 10.0 mi Calm Calm - N/A   Clear